Date String (YYYY-MM-DD hh:mm:ss) UTC,Instrument flags,Ambient pressure (hPa),Sample flow (lpm),Bypass flow (lpm),Sample temperature (°C),Ambient temperature (°C),ASC tube jacket temperature (°C),LED temperature (°C),Box temperature (°C),Sample RH (%),Span deviation,Mass concentration (μg/m³),Mass concentration (μg/m³),Mass concentration (μg/m³)
DateTimeUTC,F1_M11,P_M11,Q1_M11,Q2_M11,T1_M11,T2_M11,T3_M11,T4_M11,T5_M11,U1_M11,ZSPAN_M11,X2_M11,X0_M11,X1_M11
2023-04-23 05:00:00,,0831.7,5.00,0.00,22.4,20.9,00.0,30.8,24.0,15.3,0000.0,0004.05,0006.39,0003.68
2023-04-23 05:01:00,,0831.7,4.99,0.00,22.4,20.9,00.0,30.8,24.0,15.3,0000.0,0004.02,0006.52,0003.67
2023-04-23 05:02:00,,0831.7,4.99,0.00,22.4,20.9,00.0,30.8,24.0,15.4,0000.0,0003.96,0006.63,0003.65
2023-04-23 05:03:00,,0831.7,4.99,0.00,22.4,20.9,00.0,30.8,23.9,15.4,0000.0,0003.95,0006.85,0003.64
2023-04-23 05:04:00,,0831.7,5.01,0.00,22.4,20.9,00.0,30.8,23.9,15.4,0000.0,0003.97,0007.02,0003.65
2023-04-23 05:05:00,,0831.8,5.00,0.00,22.4,20.8,00.0,30.8,23.9,15.4,0000.0,0003.93,0006.86,0003.63
2023-04-23 05:06:00,,0831.7,5.01,0.00,22.4,20.8,00.0,30.8,23.9,15.4,0000.0,0003.94,0006.85,0003.63
2023-04-23 05:07:00,,0831.7,5.00,0.00,22.4,20.8,00.0,30.8,23.9,15.4,0000.0,0003.95,0006.95,0003.62
2023-04-23 05:08:00,,0831.7,5.01,0.00,22.3,20.8,00.0,30.8,23.9,15.3,0000.0,0003.94,0007.01,0003.60
2023-04-23 05:09:00,,0831.7,4.99,0.00,22.3,20.8,00.0,30.8,23.9,15.3,0000.0,0003.96,0007.13,0003.59
2023-04-23 05:10:00,,0831.7,4.99,0.00,22.3,20.8,00.0,30.8,23.9,15.4,0000.0,0003.97,0007.14,0003.60
2023-04-23 05:11:00,,0831.7,5.00,0.00,22.3,20.7,00.0,30.8,23.8,15.5,0000.0,0003.99,0007.18,0003.61
2023-04-23 05:12:00,,0831.7,5.00,0.00,22.3,20.7,00.0,30.8,23.8,15.5,0000.0,0003.99,0007.15,0003.61
2023-04-23 05:13:00,,0831.7,5.01,0.00,22.3,20.7,00.0,30.7,23.8,15.4,0000.0,0004.00,0007.04,0003.60
2023-04-23 05:14:00,,0831.7,5.01,0.00,22.3,21.1,00.0,30.7,24.1,15.4,0000.0,0003.99,0006.92,0003.58
2023-04-23 05:15:00,,0831.7,5.00,0.00,22.4,22.0,00.0,30.6,24.4,15.3,0000.0,0003.95,0006.68,0003.56
2023-04-23 05:16:00,,0831.6,4.99,0.00,22.6,22.8,00.0,30.7,24.7,15.2,0000.0,0003.91,0006.57,0003.55
2023-04-23 05:17:00,,0831.6,4.99,0.00,22.7,22.8,00.0,30.7,24.6,15.1,0000.0,0003.88,0006.25,0003.53
2023-04-23 05:18:00,,0831.6,5.01,0.00,22.7,22.6,00.0,30.8,24.4,15.2,0000.0,0003.86,0006.13,0003.52
2023-04-23 05:19:00,,0831.6,5.00,0.00,22.6,22.3,00.0,30.8,24.4,15.1,0000.0,0003.84,0006.05,0003.50
2023-04-23 05:20:00,,0831.6,5.00,0.00,22.6,22.0,00.0,30.9,24.3,15.1,0000.0,0003.82,0005.95,0003.50
2023-04-23 05:21:00,,0831.5,5.00,0.00,22.6,21.8,00.0,30.9,24.2,15.0,0000.0,0003.81,0005.94,0003.49
2023-04-23 05:22:00,,0831.5,5.01,0.00,22.6,21.6,00.0,30.9,24.2,15.0,0000.0,0003.77,0005.84,0003.47
2023-04-23 05:23:00,,0831.5,5.00,0.00,22.6,21.5,00.0,30.9,24.2,15.0,0000.0,0003.76,0005.83,0003.47
2023-04-23 05:24:00,,0831.5,5.01,0.00,22.6,21.4,00.0,30.9,24.1,14.9,0000.0,0003.74,0005.50,0003.45
2023-04-23 05:25:00,,0831.5,4.99,0.00,22.6,21.2,00.0,30.9,24.1,14.9,0000.0,0003.71,0005.26,0003.44
2023-04-23 05:26:00,,0831.5,5.00,0.00,22.5,21.1,00.0,30.9,24.1,14.8,0000.0,0003.69,0005.21,0003.44
2023-04-23 05:27:00,,0831.5,5.00,0.00,22.5,21.1,00.0,30.9,24.1,14.8,0000.0,0003.69,0005.20,0003.42
2023-04-23 05:28:00,,0831.5,5.00,0.00,22.5,21.0,00.0,30.9,24.1,14.9,0000.0,0003.68,0005.20,0003.41
2023-04-23 05:29:00,,0831.5,5.00,0.00,22.5,21.0,00.0,30.9,24.0,15.0,0000.0,0003.68,0005.25,0003.41
2023-04-23 05:30:00,,0831.5,4.99,0.00,22.5,20.9,00.0,30.9,24.0,15.1,0000.0,0003.68,0005.28,0003.41
2023-04-23 05:31:00,,0831.5,5.00,0.00,22.4,20.9,00.0,30.9,24.0,15.2,0000.0,0003.70,0005.42,0003.41
2023-04-23 05:32:00,,0831.5,5.00,0.00,22.4,20.9,00.0,30.9,24.0,15.1,0000.0,0003.71,0005.44,0003.42
2023-04-23 05:33:00,,0831.5,5.00,0.00,22.4,20.8,00.0,30.9,23.9,15.1,0000.0,0003.70,0005.42,0003.41
2023-04-23 05:34:00,,0831.5,5.00,0.00,22.4,20.8,00.0,30.9,23.9,15.0,0000.0,0003.70,0005.47,0003.40
2023-04-23 05:35:00,,0831.5,5.00,0.00,22.4,20.8,00.0,30.8,23.9,15.0,0000.0,0003.71,0005.64,0003.39
2023-04-23 05:36:00,,0831.5,5.00,0.00,22.4,20.8,00.0,30.8,23.9,15.0,0000.0,0003.72,0005.78,0003.38
2023-04-23 05:37:00,,0831.5,5.00,0.00,22.3,20.7,00.0,30.8,23.9,15.0,0000.0,0003.72,0005.88,0003.37
2023-04-23 05:38:00,,0831.5,5.00,0.00,22.3,20.7,00.0,30.8,23.9,15.0,0000.0,0003.72,0005.87,0003.36
2023-04-23 05:39:00,,0831.4,5.00,0.00,22.3,20.7,00.0,30.8,23.9,15.0,0000.0,0003.74,0005.97,0003.37
2023-04-23 05:40:00,,0831.5,5.01,0.00,22.3,20.7,00.0,30.8,23.9,14.9,0000.0,0003.71,0005.81,0003.35
2023-04-23 05:41:00,,0831.5,5.01,0.00,22.3,20.9,00.0,30.8,24.0,14.9,0000.0,0003.68,0005.70,0003.34
2023-04-23 05:42:00,,0831.5,5.00,0.00,22.4,21.8,00.0,30.7,24.3,14.8,0000.0,0003.65,0005.51,0003.34
2023-04-23 05:43:00,,0831.5,4.99,0.00,22.6,22.8,00.0,30.7,24.7,14.7,0000.0,0003.64,0005.45,0003.32
2023-04-23 05:44:00,,0831.5,5.00,0.00,22.7,22.9,00.0,30.8,24.6,14.6,0000.0,0003.64,0005.49,0003.32
2023-04-23 05:45:00,,0831.5,5.00,0.00,22.7,22.7,00.0,30.8,24.5,14.5,0000.0,0003.63,0005.42,0003.31
2023-04-23 05:46:00,,0831.4,5.00,0.00,22.7,22.4,00.0,30.9,24.4,14.5,0000.0,0003.60,0005.20,0003.31
2023-04-23 05:47:00,,0831.5,5.00,0.00,22.7,22.1,00.0,30.9,24.3,14.5,0000.0,0003.59,0005.01,0003.32
2023-04-23 05:48:00,,0831.5,5.00,0.00,22.6,21.9,00.0,30.9,24.3,14.5,0000.0,0003.57,0004.88,0003.32
2023-04-23 05:49:00,,0831.4,5.01,0.00,22.6,21.7,00.0,30.9,24.3,14.4,0000.0,0003.58,0004.93,0003.32
2023-04-23 05:50:00,,0831.4,5.00,0.00,22.6,21.5,00.0,30.9,24.2,14.4,0000.0,0003.57,0004.91,0003.32
2023-04-23 05:51:00,,0831.4,5.01,0.00,22.6,21.3,00.0,30.9,24.2,14.4,0000.0,0003.58,0004.97,0003.32
2023-04-23 05:52:00,,0831.5,4.99,0.00,22.6,21.2,00.0,30.9,24.1,14.4,0000.0,0003.59,0005.03,0003.31
2023-04-23 05:53:00,,0831.4,5.00,0.00,22.6,21.1,00.0,30.9,24.1,14.4,0000.0,0003.58,0005.07,0003.30
2023-04-23 05:54:00,,0831.5,4.99,0.00,22.6,21.0,00.0,30.9,24.1,14.4,0000.0,0003.58,0005.10,0003.28
2023-04-23 05:55:00,,0831.4,5.00,0.00,22.5,21.0,00.0,30.9,24.1,14.4,0000.0,0003.56,0005.42,0003.28
2023-04-23 05:56:00,,0831.5,5.00,0.00,22.5,21.0,00.0,30.9,24.1,14.4,0000.0,0003.56,0005.77,0003.27
2023-04-23 05:57:00,,0831.4,5.00,0.00,22.5,20.9,00.0,30.9,24.0,14.4,0000.0,0003.57,0005.87,0003.26
2023-04-23 05:58:00,,0831.5,4.99,0.00,22.5,20.9,00.0,30.9,24.0,14.4,0000.0,0003.55,0005.84,0003.25
2023-04-23 05:59:00,,0831.4,5.00,0.00,22.5,20.9,00.0,30.9,24.0,14.5,0000.0,0003.55,0005.85,0003.24
